CDT,Max TemperatureF,Mean TemperatureF,Min TemperatureF,Max Dew PointF,MeanDew PointF,Min DewpointF,Max Humidity, Mean Humidity, Min Humidity, Max Sea Level PressureIn, Mean Sea Level PressureIn, Min Sea Level PressureIn, Max VisibilityMiles, Mean VisibilityMiles, Min VisibilityMiles, Max Wind SpeedMPH, Mean Wind SpeedMPH, Max Gust SpeedMPH,PrecipitationIn, CloudCover, Events, WindDirDegrees
2012-10-1,68,63,58,61,59,57,100,91,81,29.78,29.63,29.54,10,7,1,26,11,31,0.59,8,Rain-Thunderstorm,348
2012-10-2,75,65,55,61,55,52,93,70,46,29.99,29.89,29.77,10,10,10,12,4,15,0.00,0,,296
2012-10-3,79,67,55,63,58,54,93,68,42,30.13,30.06,29.99,10,10,10,14,5,18,0.00,0,,166
2012-10-4,83,70,57,67,61,57,100,74,47,30.25,30.19,30.14,10,6,0,9,3,13,0.00,1,Fog,138
2012-10-5,85,71,56,66,62,54,100,76,51,30.18,30.10,30.00,10,7,2,24,10,30,T,2,,177
2012-10-6,56,52,48,53,46,43,93,80,66,30.21,30.16,30.10,10,10,10,23,13,29,T,8,,13
2012-10-7,62,55,47,45,43,40,80,65,49,30.29,30.22,30.16,10,10,10,18,11,24,0.01,5,Rain,14
2012-10-8,63,54,45,47,46,43,93,71,48,30.29,30.22,30.15,10,9,3,13,5,16,0.29,6,Rain,22
2012-10-9,70,55,40,57,46,39,100,74,47,30.19,30.12,30.00,10,7,1,12,4,16,0.00,1,,165
2012-10-10,72,63,54,58,55,45,100,76,51,30.23,30.17,30.06,10,10,10,17,7,22,0.00,4,,9
2012-10-11,79,67,55,66,55,46,93,78,62,30.26,30.20,30.14,10,10,10,13,6,17,0.00,5,,113
2012-10-12,83,72,61,67,65,61,100,78,55,30.27,30.21,30.17,10,9,3,12,2,14,0.00,1,,190
2012-10-13,84,73,61,67,63,61,100,76,51,30.22,30.14,30.00,10,6,0,21,10,24,0.00,0,,162
2012-10-14,81,72,63,72,67,62,97,86,74,30.12,30.01,29.92,10,8,2,30,13,39,0.94,5,Rain-Thunderstorm,225
2012-10-15,77,67,56,59,54,48,93,66,38,30.11,30.04,29.98,10,10,10,9,3,13,0.00,0,,355
2012-10-16,72,62,52,60,56,52,100,81,61,30.02,29.94,29.84,10,10,10,9,5,13,0.00,0,,161
2012-10-17,81,68,55,70,62,53,93,76,58,29.84,29.70,29.54,10,10,5,29,14,40,0.11,3,Rain-Thunderstorm,193
2012-10-18,74,63,51,64,48,36,100,63,25,29.91,29.85,29.70,10,10,1,21,8,25,0.00,1,,269
2012-10-19,72,60,47,47,40,36,83,55,27,29.92,29.86,29.83,10,10,10,25,10,39,0.00,2,,258
2012-10-20,77,60,42,50,46,41,100,65,29,30.01,29.95,29.91,10,10,10,12,5,16,0.00,0,,172
2012-10-21,83,68,53,56,51,48,86,60,33,30.08,30.03,29.97,10,10,10,20,8,22,0.00,1,,170
2012-10-22,83,69,55,59,53,50,93,63,33,30.16,30.09,30.05,10,10,10,17,8,22,0.00,0,,163
2012-10-23,80,67,53,64,58,52,97,74,51,30.12,30.06,30.01,10,10,10,14,6,18,0.00,0,,166
2012-10-24,83,71,59,67,61,57,100,74,47,30.12,30.04,29.99,10,10,8,16,7,20,0.00,1,,153
2012-10-25,83,71,59,65,61,58,97,76,54,30.03,29.97,29.94,10,10,8,23,6,21,0.00,0,,165
2012-10-26,70,58,45,62,47,41,93,85,77,30.21,30.12,29.96,10,9,2,23,16,30,0.16,8,Rain,7
2012-10-27,59,51,42,40,37,34,76,60,43,30.21,30.16,30.09,10,10,10,22,13,26,0.00,2,,356
2012-10-28,61,50,39,36,34,30,85,59,32,30.22,30.18,30.14,10,10,10,22,10,26,0.00,0,,347
2012-10-29,60,49,37,35,32,26,85,56,27,30.30,30.22,30.14,10,10,10,23,9,30,0.00,0,,342
2012-10-30,67,52,37,43,36,32,85,59,32,30.13,30.06,29.96,10,10,10,13,5,21,0.00,0,Rain,285
2012-10-31,70,57,43,46,43,40,86,60,33,30.03,30.00,29.97,10,10,10,12,4,14,0.00,1,,273